Regional Weather Roundup
Issued by NWS

Home | Current Version | Previous Version | Text Only | Print | Product List | Glossary Off
Versions: 1 2 3 4 5 6 7 8 9 10 11 12 13 14 15 16 17 18 19 20 21 22 23 24 25 26 27 28 29 30 31 32 33 34 35 36 37 38 39 40 41 42 43 44 45 46 47 48 49 50

051
ASUS43 KTOP 172008
RWRKS

WEATHER ROUNDUP FOR KANSAS
NATIONAL WEATHER SERVICE GOODLAND KS
200 PM CST SAT FEB 17 2018

NOTE:  "FAIR" INDICATES FEW OR NO CLOUDS BELOW 12,000 FEET WITH NO
SIGNIFICANT WEATHER AND/OR OBSTRUCTIONS TO VISIBILITY.

KSZ001>006-013>018-027>032-041>047-172100-
NORTHWEST KANSAS

CITY           SKY/WX    TMP DP  RH WIND       PRES   REMARKS
GOODLAND       SUNNY     50  14  23 N20G26    30.08F
HILL CITY      SUNNY     55  16  21 NW18G29   30.11F
RUSSELL        SUNNY     58  16  19 NW18G28   30.10F
$$

KSZ061>065-074>080-084>089-172100-
SOUTHWEST KANSAS

CITY           SKY/WX    TMP DP  RH WIND       PRES   REMARKS
DODGE CITY     SUNNY     58  13  17 N16G28    30.12F
ELKHART        SUNNY     58  17  20 NE9       30.13F
GARDEN CITY    SUNNY     55   8  15 N20G29    30.11F
GREAT BEND     SUNNY     56  17  21 NW17      30.11F
LIBERAL        SUNNY     58  10  15 N16       30.13R
PRATT          SUNNY     57   9  15 N14G25    30.12S
$$

KSZ066>073-081>083-090>101-172100-
SOUTHEAST KANSAS

CITY           SKY/WX    TMP DP  RH WIND       PRES   REMARKS
CHANUTE        SUNNY     58  29  33 NW15G22   30.08F
COFFEYVILLE    SUNNY     55  37  50 NW8       30.10F
HUTCHINSON     SUNNY     59  14  17 N15G24    30.11S
MEDICINE LODGE   N/A     61  14  16 N21G32    30.08F
NEWTON         SUNNY     56  15  20 N18G29    30.11S
PARSONS        SUNNY     55  35  47 NW9       30.10S
WICHITA INTL   SUNNY     60  16  18 N23G29    30.11R
WICHITA JABRA  SUNNY     59  16  18 N18G30    30.11R
WICHITA MCCONL SUNNY     60  18  19 N21G28    30.10R
WINFIELD       SUNNY     62  20  19 N17G26    30.09F
$$

KSZ007>012-019>026-033>040-048>060-102>105-172100-
NORTHEAST KANSAS

CITY           SKY/WX    TMP DP  RH WIND       PRES   REMARKS
CONCORDIA      SUNNY     54  16  22 N14G23    30.08F
EMPORIA        SUNNY     56  18  22 N20G30    30.09S
LAWRENCE       SUNNY     55  24  30 W16G23    30.08R
MANHATTAN      SUNNY     57  17  21 NW10G21   30.10R
MARYSVILLE     SUNNY     52  21  30 NW12G18   30.08S
OLATHE IND     SUNNY     52  26  36 W18G24    30.07R
OLATHE EXE     SUNNY     50  26  39 NW13G20   30.06R
SALINA         SUNNY     59  19  21 NW16G23   30.11F
TOPEKA BILLARD SUNNY     56  23  27 NW10      30.08R
TOPEKA FORBES  SUNNY     56  22  26 NW21      30.08R
$$




USA.gov is the U.S. government's official web portal to all federal, state and local government web resources and services.